[[{"header":{"parameterUnit":"m.s-1","parameterCategory":1,"la1":30.2991,"la2":30.254,"lo1":-89.0895,"lo2":-89.0444,"dy":0.0017,"dx":0.0017,"nx":28,"ny":28,"refTime":"2023-10-07T21:00:00:Z","depth":0,"parameterNumber":2,"parameterNumberName":"U-component_of_WINDS"},"data":[0,0,0,0,0,0,0,0,0,0,0,0,0,0,0,0,0,0,0,0,0,0,0,0,0,0,0,0,0,0,0,0,0,0,0,0,0,0,0,0,0,0,0,0,0,0,0,0,0,0,0,0,0,0,0,0,0,0,-0.998,-0.9981,0,-1.0094,-1.0095,-1.0096,-1.0158,-1.0158,-1.0158,-1.0159,-1.0272,-1.0275,-1.0277,0,0,0,0,0,0,0,0,0,0,0,0,0,-0.9813,-0.9816,-0.998,-0.9981,-0.9983,-1.0093,-1.0095,-1.0097,-1.0158,-1.0158,-1.0158,-1.0159,-1.0271,-1.0274,-1.0278,0,0,0,0,0,0,0,0,0,0,0,0,0,-0.9902,-0.9817,-0.998,-1.0027,-1.0032,-1.0093,-1.0095,-1.0097,-1.0158,-1.0158,-1.0158,-1.0159,-1.027,-1.0274,-1.0278,-1.03,0,0,-1.0291,-1.0293,0,0,0,0,0,0,0,0,-0.9897,-0.9908,-1.0019,-1.0024,-1.003,-1.0112,-1.0078,-1.0165,-1.0158,-1.011,-1.0159,-1.0159,-1.0218,-1.0227,-1.0248,-1.0305,-1.031,-1.0292,-1.0294,-1.0296,-1.0297,0,0,0,0,0,0,0,-0.9891,-0.9904,-1.0025,-1.002,-1.0027,-1.0041,-1.0054,-1.0095,-1.0161,-1.0114,-1.0119,-1.0132,-1.0221,-1.0243,-1.0251,-1.0312,-1.0292,-1.0295,-1.0298,-1.03,-1.0392,-1.0392,0,0,0,0,0,0,-0.9877,-0.9898,-1.0021,-1.0028,-0.9963,-1.0044,-1.0059,-1.0085,-1.0161,-1.0173,-1.0132,-1.0134,-1.0236,-1.0246,-1.0255,-1.0285,-1.0296,-1.03,-1.0303,-1.0393,-1.0392,-1.0392,0,0,0,0,0,0,-0.9874,-0.9888,-1.0017,-0.9965,-0.9982,-1.0047,-1.0076,-1.0087,-1.0109,-1.0174,-1.0186,-1.0142,-1.0236,-1.0249,-1.0288,-1.029,-1.0302,-1.0306,-1.0393,-1.0393,-1.0392,-1.0345,0,0,0,0,0,0,-0.9869,-0.9886,-0.9896,-0.9964,-0.9985,-1.0049,-1.0076,-1.0089,-1.0117,-1.0122,-1.0187,-1.0198,-1.0237,-1.0282,-1.0293,-1.0296,-1.0309,-1.0393,-1.0393,-1.0392,-1.0347,-1.0344,-1.0341,0,0,0,0,0,-0.9862,-0.9877,-0.9896,-0.991,-0.9998,-1.0049,-1.0061,-1.0107,-1.0117,-1.0127,-1.0168,-1.0196,-1.0288,-1.0285,-1.0298,-1.0303,-1.0393,-1.0393,-1.0392,-1.0348,-1.0344,-1.0341,0,0,0,0,0,0,-0.9806,-0.9887,-0.9909,-0.9947,-0.9991,-1.0059,-1.0073,-1.0101,-1.0142,-1.0144,-1.0199,-1.0213,-1.0247,-1.0279,-1.0275,-1.0327,-1.0343,-1.0346,-1.0305,-1.0302,-1.0299,-1.029,-1.0313,0,0,0,0,0,-0.9799,-0.9834,-0.9903,-0.9929,-0.995,-1.0008,-1.0032,-1.0063,-1.0111,-1.0129,-1.0174,-1.0218,-1.0257,-1.0281,-1.0321,-1.0352,-1.0367,-1.0362,-1.0358,-1.0355,-1.0356,-1.0375,-1.0373,-1.0391,-1.0391,-1.0391,0,0,-0.9783,-0.9831,-0.985,-0.9919,-0.9957,-0.9992,-1.0023,-1.0058,-1.0084,-1.0134,-1.0175,-1.0209,-1.0261,-1.0297,-1.0315,-1.0324,-1.0355,-1.0355,-1.0352,-1.0355,-1.0374,-1.0373,-1.0371,-1.0391,-1.0391,-1.0391,0,0,-0.9771,-0.9812,-0.9838,-0.9876,-0.9933,-0.9971,-0.9977,-1.0042,-1.0067,-1.0108,-1.0147,-1.0178,-1.0244,-1.028,-1.0306,-1.0308,-1.0335,-1.0319,-1.0302,-1.0319,-1.0318,-1.0317,-1.0317,-1.0316,-1.032,-1.032,-1.032,0,-0.9744,-0.9798,-0.9848,-0.9882,-0.991,-0.9958,-0.9985,-1.0019,-1.0085,-1.0103,-1.0114,-1.0197,-1.0236,-1.028,-1.0281,-1.0301,-1.0309,-1.0312,-1.0314,-1.0314,-1.0314,-1.0314,-1.0314,-1.0318,-1.0318,-1.0318,-1.0319,0,-0.9761,-0.9798,-0.9813,-0.9877,-0.9908,-0.9937,-0.9991,-1.0015,-1.0044,-1.0081,-1.0122,-1.017,-1.022,-1.0233,-1.0261,-1.0281,-1.0285,-1.0304,-1.0321,-1.0309,-1.031,-1.0311,-1.0315,-1.0315,-1.0316,-1.0317,0,0,-0.9717,-0.9809,-0.9813,-0.9843,-0.9909,-0.9938,-0.997,-1.002,-1.0039,-1.0083,-1.0111,-1.0165,-1.0183,-1.0213,-1.0246,-1.0261,-1.0259,-1.0278,-1.028,-1.0272,-1.0283,-1.0268,-1.0267,-1.0277,-1.0277,-1.0278,-1.0278,0,-0.9715,-0.9775,-0.9821,-0.9863,-0.9897,-0.9943,-0.997,-1.0013,-1.0048,-1.0082,-1.012,-1.0158,-1.0179,-1.0197,-1.0215,-1.0255,-1.0261,-1.0256,-1.0302,-1.0303,-1.0287,-1.0268,-1.0253,-1.0251,-1.0279,-1.0279,-1.0279,0,-0.972,-0.9763,-0.9809,-0.9872,-0.9888,-0.9912,-0.996,-0.9992,-1.0042,-1.0066,-1.01,-1.0134,-1.0168,-1.0182,-1.023,-1.0225,-1.0246,-1.0269,-1.027,-1.0276,-1.029,-1.0272,-1.0251,-1.0251,-1.0281,-1.0281,-1.0281,0,-0.9682,-0.9752,-0.9789,-0.9812,-0.9886,-0.9902,-0.9933,-0.9983,-1.001,-1.0052,-1.007,-1.0116,-1.014,-1.0174,-1.0219,-1.0225,-1.0262,-1.028,-1.0282,-1.0281,-1.0287,-1.0286,-1.0268,-1.0302,-1.0302,-1.0302,-1.0302,0,-0.9675,-0.97,-0.9773,-0.9795,-0.9825,-0.9877,-0.9905,-0.994,-0.9984,-1.0013,-1.0055,-1.0081,-1.014,-1.0173,-1.0208,-1.0241,-1.0252,-1.0272,-1.0281,-1.0268,-1.0265,-1.0282,-1.0283,-1.0302,-1.0302,-1.0302,-1.0302,0,-0.9637,-0.9687,-0.973,-0.9796,-0.9814,-0.9833,-0.989,-0.9912,-0.995,-0.9986,-0.9997,-1.0056,-1.0097,-1.0145,-1.0202,-1.0225,-1.0255,-1.0269,-1.0239,-1.0244,-1.0243,-1.0242,-1.0235,-1.0237,-1.0269,-1.0269,-1.0269,0,-0.9629,-0.965,-0.9719,-0.9742,-0.9773,-0.9809,-0.9837,-0.9888,-0.9915,-0.9973,-0.9989,-1.0033,-1.0071,-1.0134,-1.0181,-1.0224,-1.0239,-1.0234,-1.0246,-1.0232,-1.0238,-1.0236,-1.0238,-1.023,-1.0229,-1.0229,-1.0228,0,-0.9608,-0.9631,-0.967,-0.9717,-0.975,-0.9789,-0.983,-0.9846,-0.9906,-0.9934,-0.9977,-1.0007,-1.0065,-1.0108,-1.0157,-1.0188,-1.0218,-1.0224,-1.0227,-1.0214,-1.0195,-1.0204,-1.0229,-1.0224,-1.0225,-1.0225,-1.0225,-1.0225,-0.9585,-0.9605,-0.9657,-0.9699,-0.9735,-0.9773,-0.9797,-0.9838,-0.9875,-0.9927,-0.9955,-0.9997,-1.0045,-1.0115,-1.0145,-1.0178,-1.0188,-1.0192,-1.0193,-1.0193,-1.0189,-1.019,-1.0187,-1.0187,-1.0188,-1.0188,-1.0188,0,-0.9565,-0.9601,-0.9639,-0.9695,-0.9728,-0.9754,-0.9801,-0.9826,-0.9863,-0.9906,-0.9943,-0.9992,-1.0034,-1.0084,-1.0129,-1.0146,-1.016,-1.0156,-1.0154,-1.0161,-1.0178,-1.0171,-1.0143,-1.0143,-1.0143,-1.0143,-1.0143,-1.0143,-0.9559,-0.9595,-0.9624,-0.9679,-0.9715,-0.9757,-0.9781,-0.9815,-0.985,-0.9903,-0.9938,-0.9971,-1.0017,-1.0066,-1.0105,-1.0119,-1.0133,-1.0124,-1.0142,-1.0156,-1.016,-1.0164,-1.0157,-1.0127,-1.0127,-1.0122,-1.0122,-1.0122]},{"header":{"parameterUnit":"m.s-1","parameterCategory":1,"la1":30.2991,"la2":30.254,"lo1":-89.0895,"lo2":-89.0444,"dy":0.0017,"dx":0.0017,"nx":28,"ny":28,"refTime":"2023-10-07T21:00:00:Z","depth":0,"parameterNumber":3,"parameterNumberName":"V-component_of_WINDS"},"data":[0,0,0,0,0,0,0,0,0,0,0,0,0,0,0,0,0,0,0,0,0,0,0,0,0,0,0,0,0,0,0,0,0,0,0,0,0,0,0,0,0,0,0,0,0,0,0,0,0,0,0,0,0,0,0,0,0,0,-1.7389,-1.739,0,-1.7412,-1.7412,-1.7412,-1.7385,-1.7383,-1.7382,-1.7381,-1.7408,-1.741,-1.7411,0,0,0,0,0,0,0,0,0,0,0,0,0,-1.7325,-1.7327,-1.7389,-1.739,-1.739,-1.7412,-1.7412,-1.7412,-1.7385,-1.7383,-1.7382,-1.7381,-1.7408,-1.741,-1.7412,0,0,0,0,0,0,0,0,0,0,0,0,0,-1.7351,-1.7327,-1.7389,-1.7379,-1.7378,-1.7412,-1.7412,-1.7413,-1.7385,-1.7383,-1.7382,-1.738,-1.7407,-1.7409,-1.7412,-1.7459,0,0,-1.742,-1.7421,0,0,0,0,0,0,0,0,-1.735,-1.7354,-1.738,-1.7379,-1.7379,-1.7394,-1.7399,-1.7428,-1.7385,-1.7382,-1.7381,-1.738,-1.7405,-1.7407,-1.7415,-1.746,-1.7461,-1.742,-1.7421,-1.7422,-1.7423,0,0,0,0,0,0,0,-1.7348,-1.7352,-1.7398,-1.738,-1.738,-1.7374,-1.7376,-1.7405,-1.7402,-1.7383,-1.7381,-1.7383,-1.7404,-1.7413,-1.7416,-1.7461,-1.742,-1.7422,-1.7424,-1.7425,-1.7545,-1.7547,0,0,0,0,0,0,-1.7347,-1.7351,-1.7398,-1.7399,-1.736,-1.7376,-1.7378,-1.7391,-1.7402,-1.7402,-1.7385,-1.7382,-1.7409,-1.7413,-1.7417,-1.7472,-1.7422,-1.7425,-1.7426,-1.7543,-1.7545,-1.7547,0,0,0,0,0,0,-1.7346,-1.7351,-1.7397,-1.7375,-1.738,-1.7379,-1.7393,-1.7392,-1.74,-1.7403,-1.7403,-1.7394,-1.7408,-1.7413,-1.7448,-1.7472,-1.7426,-1.7428,-1.7541,-1.7544,-1.7546,-1.7582,0,0,0,0,0,0,-1.7344,-1.7351,-1.7368,-1.7375,-1.7381,-1.7427,-1.7394,-1.7393,-1.7404,-1.7401,-1.7412,-1.7412,-1.7407,-1.7444,-1.745,-1.7475,-1.743,-1.7539,-1.7542,-1.7545,-1.7579,-1.7586,-1.7592,0,0,0,0,0,-1.7342,-1.7378,-1.7369,-1.7375,-1.7402,-1.7429,-1.7432,-1.7425,-1.7406,-1.7424,-1.7426,-1.7412,-1.7468,-1.7448,-1.7455,-1.748,-1.7538,-1.7541,-1.7545,-1.7576,-1.7585,-1.7592,0,0,0,0,0,0,-1.7376,-1.7379,-1.7369,-1.7409,-1.7418,-1.7424,-1.7446,-1.7434,-1.745,-1.7447,-1.7438,-1.7441,-1.7478,-1.7482,-1.746,-1.7526,-1.75,-1.7505,-1.7521,-1.7529,-1.7536,-1.7534,-1.7432,0,0,0,0,0,-1.7388,-1.7408,-1.741,-1.7445,-1.745,-1.7447,-1.7458,-1.7452,-1.7462,-1.7466,-1.7471,-1.7482,-1.7502,-1.7516,-1.7535,-1.7579,-1.7582,-1.76,-1.7606,-1.7612,-1.7617,-1.7641,-1.7649,-1.756,-1.756,-1.756,0,0,-1.7414,-1.7418,-1.7431,-1.7452,-1.7459,-1.748,-1.7451,-1.7475,-1.7492,-1.747,-1.7503,-1.7507,-1.7519,-1.7559,-1.7577,-1.7564,-1.7642,-1.7616,-1.7621,-1.7623,-1.7645,-1.7654,-1.7661,-1.7562,-1.7562,-1.7561,0,0,-1.7471,-1.7476,-1.7505,-1.7512,-1.7522,-1.7519,-1.7527,-1.7533,-1.7535,-1.7567,-1.7551,-1.7571,-1.7606,-1.7615,-1.7625,-1.7684,-1.7672,-1.7691,-1.7724,-1.7747,-1.7755,-1.7761,-1.7782,-1.779,-1.7695,-1.7696,-1.7696,0,-1.7502,-1.7533,-1.7522,-1.7547,-1.7557,-1.7537,-1.7567,-1.7575,-1.7591,-1.7599,-1.7584,-1.7627,-1.7634,-1.7675,-1.769,-1.7698,-1.7706,-1.769,-1.7754,-1.776,-1.7766,-1.7787,-1.7795,-1.7698,-1.7698,-1.7697,-1.7697,0,-1.757,-1.7592,-1.7615,-1.7629,-1.7641,-1.7669,-1.7663,-1.7677,-1.7669,-1.7669,-1.7702,-1.7709,-1.7729,-1.7738,-1.7731,-1.7779,-1.7771,-1.7755,-1.7729,-1.7777,-1.7796,-1.7804,-1.7701,-1.77,-1.7699,-1.7699,0,0,-1.7651,-1.7658,-1.7667,-1.7673,-1.7682,-1.7699,-1.7725,-1.7743,-1.7756,-1.7767,-1.779,-1.7819,-1.7805,-1.7815,-1.7809,-1.7829,-1.7876,-1.7811,-1.7811,-1.7824,-1.793,-1.7942,-1.7951,-1.7868,-1.7869,-1.787,-1.7929,0,-1.7709,-1.7754,-1.7744,-1.7789,-1.7809,-1.779,-1.7813,-1.7821,-1.7821,-1.7839,-1.7839,-1.7861,-1.7839,-1.7845,-1.7865,-1.7867,-1.7898,-1.7862,-1.789,-1.7891,-1.7888,-1.7961,-1.7974,-1.8029,-1.7936,-1.7937,-1.7938,0,-1.7782,-1.7795,-1.7841,-1.7846,-1.7854,-1.7875,-1.789,-1.7907,-1.7916,-1.7915,-1.7926,-1.7916,-1.7943,-1.7916,-1.7954,-1.793,-1.7941,-1.7943,-1.7945,-1.7948,-1.7918,-1.7967,-1.8046,-1.8055,-1.795,-1.7949,-1.7948,0,-1.7837,-1.7866,-1.7897,-1.7902,-1.7909,-1.7924,-1.7928,-1.7935,-1.7946,-1.796,-1.7967,-1.7984,-1.7994,-1.8008,-1.8003,-1.7984,-1.8043,-1.8015,-1.8043,-1.8043,-1.8057,-1.8057,-1.814,-1.8063,-1.8063,-1.8063,-1.8063,0,-1.7903,-1.7932,-1.7921,-1.7941,-1.7973,-1.7962,-1.7994,-1.7996,-1.8002,-1.8022,-1.8007,-1.8026,-1.8018,-1.8037,-1.8033,-1.8065,-1.807,-1.807,-1.8069,-1.8072,-1.8072,-1.808,-1.8076,-1.8065,-1.8064,-1.8064,-1.8064,0,-1.797,-1.7964,-1.7997,-1.7999,-1.8,-1.8024,-1.8027,-1.8045,-1.8043,-1.8069,-1.8074,-1.8072,-1.8093,-1.8089,-1.8113,-1.8111,-1.8151,-1.8145,-1.8148,-1.8147,-1.8175,-1.8173,-1.8267,-1.8279,-1.8194,-1.8194,-1.8195,0,-1.8013,-1.8034,-1.8039,-1.805,-1.8054,-1.8073,-1.8084,-1.8074,-1.8086,-1.8098,-1.8115,-1.8134,-1.815,-1.8185,-1.8186,-1.8205,-1.8199,-1.8231,-1.8202,-1.8204,-1.8201,-1.82,-1.8202,-1.8237,-1.8238,-1.8239,-1.824,0,-1.8089,-1.8085,-1.81,-1.8114,-1.8127,-1.8138,-1.8148,-1.8159,-1.815,-1.8164,-1.8185,-1.8197,-1.822,-1.824,-1.8257,-1.8262,-1.825,-1.8248,-1.8256,-1.826,-1.8261,-1.8261,-1.8164,-1.8247,-1.8246,-1.8245,-1.8245,-1.8245,-1.8146,-1.8164,-1.817,-1.8187,-1.8193,-1.8202,-1.822,-1.8219,-1.8236,-1.8253,-1.8246,-1.827,-1.8279,-1.83,-1.8307,-1.8326,-1.8314,-1.8325,-1.8328,-1.8331,-1.8335,-1.8257,-1.8329,-1.8329,-1.8329,-1.8328,-1.8328,0,-1.8222,-1.8225,-1.8241,-1.8254,-1.8268,-1.8253,-1.8263,-1.8276,-1.8297,-1.8305,-1.8319,-1.8343,-1.8362,-1.8364,-1.8383,-1.8398,-1.8393,-1.8403,-1.8402,-1.8404,-1.8344,-1.8336,-1.8407,-1.8407,-1.8407,-1.8407,-1.8407,-1.8407,-1.8264,-1.8294,-1.829,-1.8322,-1.8325,-1.8347,-1.8354,-1.8362,-1.8369,-1.8395,-1.8411,-1.8411,-1.8417,-1.8435,-1.8453,-1.8453,-1.8461,-1.8473,-1.8472,-1.8416,-1.8408,-1.8401,-1.8393,-1.8475,-1.8475,-1.853,-1.853,-1.8531]}]]